Location: Stamford Observatory
(41.1241°N, 73.5498°W)
Time: 18:35:36
(UTC-04:00)

IRS-P3 - Visible Passes

Search period start: 19 August 2017 00:00
Search period end: 29 August 2017 00:00
Orbit: 815 x 819 km, 98.7° (Epoch: 18 August)

Date Brightness Start Highest point End Pass type
(mag) Time Alt. Az. Time Alt. Az. Time Alt. Az.
19 Aug 4.6 02:33:52 10° NNE 02:38:11 58° NE 02:38:11 58° NE visible
19 Aug 6.0 04:15:39 10° NNW 04:18:34 15° WNW 04:19:28 14° WNW visible
20 Aug 5.2 02:12:18 10° NNE 02:16:07 39° ENE 02:16:07 39° ENE visible
20 Aug 5.5 03:53:04 10° NNW 03:57:08 23° WNW 03:57:23 22° WNW visible
21 Aug 5.8 01:50:56 10° NE 01:54:02 26° ENE 01:54:02 26° ENE visible
21 Aug 5.1 03:30:51 10° N 03:35:19 34° WNW 03:35:19 34° WNW visible
22 Aug 6.4 01:29:55 10° NE 01:31:58 17° ENE 01:31:58 17° ENE visible
22 Aug 4.7 03:08:51 10° N 03:13:14 48° NW 03:13:14 48° NW visible
23 Aug 6.8 01:09:46 10° ENE 01:09:53 10° ENE 01:09:53 10° ENE visible
23 Aug 4.7 02:47:01 10° NNE 02:51:10 55° N 02:51:10 55° N visible
23 Aug 6.2 04:29:51 10° NW 04:31:31 11° WNW 04:32:27 11° WNW visible
24 Aug 5.1 02:25:21 10° NNE 02:29:05 44° NE 02:29:05 44° NE visible
24 Aug 5.8 04:06:41 10° NNW 04:10:08 18° WNW 04:10:22 18° WNW visible
25 Aug 5.7 02:03:51 10° NNE 02:07:01 30° NE 02:07:01 30° NE visible
25 Aug 5.4 03:44:16 10° N 03:48:17 26° WNW 03:48:17 26° WNW visible
26 Aug 6.2 01:42:36 10° NE 01:44:56 20° ENE 01:44:56 20° ENE visible
26 Aug 5.0 03:22:10 10° N 03:26:13 37° NW 03:26:13 37° NW visible
27 Aug 6.7 01:21:48 10° NE 01:22:51 13° ENE 01:22:51 13° ENE visible
27 Aug 4.9 03:00:14 10° N 03:04:08 46° NNW 03:04:08 46° NNW visible
28 Aug 5.1 02:38:27 10° NNE 02:42:03 44° NNE 02:42:03 44° NNE visible
28 Aug 6.1 04:20:31 10° NNW 04:23:05 14° WNW 04:23:20 14° WNW visible
